Tracking 27122 objects as of 26-Mar-2023
HD Live streaming from Space Station
objects crossing your sky now

STARLINK-2686

Track STARLINK-2686 now!
10-day predictions
STARLINK-2686 is classified as:


NORAD ID: 48464
Int'l Code: 2021-040AN
Perigee: 553.3 km
Apogee: 555.7 km
Inclination: 53.1 °
Period: 95.6 minutes
Semi major axis: 6925 km
RCS: Unknown
Launch date: May 9, 2021
Source: United States (US)
Launch site: AIR FORCE EASTERN TEST RANGE (AFETR)
Your satellite tracking list
Your tracking list is empty




NASA's NSSDC Master Catalog

Two Line Element Set (TLE):
1 48464U 21040AN  23084.90671781  .00042383  00000-0  28509-2 0  9995
2 48464  53.0548 358.9529 0001674 101.1715 258.9462 15.06351306103749
Source of the keplerian elements: AFSPC